Mitchell, SD

5:33 AM CST on December 18, 2017 (GMT -0600)
Mitchell Municipal

Weather History for KMHE - March, 2013

Change the Weather History Date:

Sunday, March 24, 2013

  Actual Average Record
Temperature  
Mean Temperature 22 °F 37 °F  
Max Temperature 28 °F 48 °F 82 °F (1939)
Min Temperature 15 °F 26 °F -2 °F (1974)
Degree Days  
Heating Degree Days 43 28  
Month to date heating degree days 945 775  
Since 1 July heating degree days 6410 6297  
Cooling Degree Days 0 0  
Month to date cooling degree days 0 0  
Year to date cooling degree days 0 0  
Moisture  
Dew Point 16 °F    
Average Humidity 79    
Maximum Humidity 86    
Minimum Humidity 69    
Precipitation  
Precipitation 0.02 in 0.03 in 1.13 in (1937)
Month to date precipitation 0.80 0.71  
Year to date precipitation 2.37 1.27  
Snow  
Snow 0.30 in - 5.00 in (1975)
Month to date snowfall 3.4  
Since 1 July snowfall 31.3  
Snow Depth 1.00 in    
Sea Level Pressure  
Sea Level Pressure 30.19 in    
Wind  
Wind Speed 15 mph (NNW)    
Max Wind Speed 20 mph    
Max Gust Speed 26 mph    
Visibility 7 miles    
Events Snow    
T = Trace of Precipitation, MM = Missing Value Source: NWS Daily Summary

Daily Weather History Graph

Daily Weather History Graph

Search for Another Location

Airport or City:

Trip Planner

Search our weather history database for the weather conditions in past years. The results will help you decide how hot, cold, wet, or windy it might be!

Date:

Astronomy

Mar. 24, 2013 Rise Set
Actual Time 7:27 AM CDT 7:49 PM CDT
Civil Twilight 6:58 AM CDT 8:18 PM CDT
Nautical Twilight 6:25 AM CDT 8:52 PM CDT
Astronomical Twilight 5:50 AM CDT 9:27 PM CDT
Moon 5:15 PM CDT (3/24) 5:43 AM CDT (3/24)
Length of Visible Light 13h 19m
Length of Day
12h 22m
Waxing Gibbous, 92% of the Moon is Illuminated
Mar 24
Waxing Gibbous
Mar 27
Full
Apr 2
Last Quarter
Apr 10
New
Apr 18
First Quarter

Hourly Weather History & Observations

Time (CDT) Temp. Windchill Dew Point Humidity Pressure Visibility Wind Dir Wind Speed Gust Speed Precip Events Conditions
12:53 AM 19.9 °F 7.9 °F 15.1 °F 81% 30.25 in 10.0 mi NW 11.5 mph - N/A   Partly Cloudy
1:53 AM 19.9 °F 9.3 °F 15.1 °F 81% 30.25 in 10.0 mi NW 9.2 mph - N/A   Scattered Clouds
2:53 AM 19.9 °F 7.3 °F 15.1 °F 81% 30.25 in 10.0 mi NW 12.7 mph - N/A   Clear
3:53 AM 18.0 °F 5.4 °F 12.0 °F 78% 30.24 in 10.0 mi NW 11.5 mph - N/A   Clear
4:53 AM 17.1 °F 3.6 °F 10.9 °F 77% 30.23 in 10.0 mi NW 12.7 mph - N/A   Clear
5:22 AM 17.6 °F 3.7 °F 12.2 °F 79% 30.16 in 10.0 mi NW 13.8 mph - N/A   Mostly Cloudy
5:46 AM 15.8 °F 2.1 °F 10.4 °F 79% 30.16 in 10.0 mi NW 12.7 mph - N/A   Scattered Clouds
5:53 AM 16.0 °F 3.6 °F 10.9 °F 81% 30.22 in 10.0 mi NNW 10.4 mph - N/A   Partly Cloudy
6:41 AM 17.6 °F 4.3 °F 10.4 °F 73% 30.16 in 10.0 mi NW 12.7 mph - N/A   Mostly Cloudy
6:53 AM 16.0 °F 3.6 °F 10.9 °F 81% 30.23 in 10.0 mi NW 10.4 mph - N/A   Mostly Cloudy
7:23 AM 15.8 °F 2.7 °F 10.4 °F 79% 30.16 in 8.0 mi NW 11.5 mph - N/A   Mostly Cloudy
7:53 AM 16.0 °F 2.3 °F 10.9 °F 81% 30.23 in 10.0 mi NW 12.7 mph - N/A   Overcast
8:22 AM 17.6 °F 5.0 °F 12.2 °F 79% 30.16 in 6.0 mi NW 11.5 mph - 0.00 in Snow Light Snow
8:53 AM 17.1 °F 2.5 °F 12.0 °F 81% 30.22 in 6.0 mi NW 15.0 mph - 0.00 in Snow Light Snow
9:20 AM 17.6 °F 3.2 °F 12.2 °F 79% 30.15 in 10.0 mi NW 15.0 mph - 0.00 in   Scattered Clouds
9:53 AM 19.0 °F 4.5 °F 12.9 °F 77% 30.21 in 10.0 mi NNW 16.1 mph - 0.00 in   Partly Cloudy
10:35 AM 19.4 °F 4.1 °F 14.0 °F 80% 30.14 in 10.0 mi NNW 18.4 mph - N/A   Mostly Cloudy
10:51 AM 19.4 °F 5.5 °F 14.0 °F 80% 30.14 in 10.0 mi NNW 15.0 mph - N/A   Scattered Clouds
10:53 AM 19.9 °F 6.2 °F 14.0 °F 78% 30.21 in 10.0 mi NW 15.0 mph 23.0 mph N/A   Scattered Clouds
11:33 AM 21.2 °F 6.8 °F 15.8 °F 80% 30.14 in 10.0 mi NW 17.3 mph - N/A   Mostly Cloudy
12:37 PM 23.0 °F 10.6 °F 15.8 °F 74% 30.13 in 8.0 mi NW 13.8 mph - 0.00 in Snow Light Snow
12:53 PM 24.1 °F 10.6 °F 16.0 °F 71% 30.20 in 6.0 mi NNW 17.3 mph - 0.00 in Snow Light Snow
1:53 PM 25.0 °F 12.2 °F 16.0 °F 69% 30.19 in 9.0 mi NNW 16.1 mph - 0.00 in   Overcast
2:36 PM 24.8 °F 11.9 °F 17.6 °F 74% 30.12 in 4.0 mi NNW 16.1 mph - 0.00 in Snow Light Snow
2:53 PM 25.0 °F 11.7 °F 18.0 °F 75% 30.18 in 3.0 mi NNW 17.3 mph - 0.00 in Snow Light Snow
3:02 PM 24.8 °F 11.1 °F 17.6 °F 74% 30.11 in 4.0 mi NNW 18.4 mph - 0.00 in Snow Light Snow
3:53 PM 26.1 °F 13.1 °F 19.0 °F 75% 30.17 in 8.0 mi NW 17.3 mph 26.5 mph 0.00 in   Overcast
4:53 PM 27.0 °F 13.5 °F 19.9 °F 75% 30.17 in 8.0 mi NNW 19.6 mph - 0.00 in   Overcast
5:35 PM 26.6 °F 13.1 °F 21.2 °F 80% 30.11 in 2.0 mi NNW 19.6 mph 26.5 mph 0.00 in Snow Light Snow
5:53 PM 27.0 °F 13.5 °F 21.0 °F 78% 30.18 in 2.5 mi NNW 19.6 mph - 0.00 in Snow Light Snow
6:47 PM 26.6 °F 13.4 °F 21.2 °F 80% 30.13 in 1.8 mi NNW 18.4 mph 24.2 mph 0.00 in Snow Light Snow
6:53 PM 27.0 °F 14.3 °F 23.0 °F 85% 30.20 in 1.8 mi NNW 17.3 mph 24.2 mph 0.00 in Snow Light Snow
7:53 PM 26.1 °F 14.5 °F 21.9 °F 84% 30.22 in 1.5 mi NNW 13.8 mph - 0.00 in Snow Light Snow
7:59 PM 26.6 °F 14.7 °F 23.0 °F 86% 30.15 in 2.0 mi NNW 15.0 mph - 0.00 in Snow Light Snow
8:26 PM 26.6 °F 14.3 °F 23.0 °F 86% 30.16 in 3.0 mi NNW 16.1 mph 25.3 mph 0.00 in Snow Light Snow
8:35 PM 26.6 °F 13.4 °F 21.2 °F 80% 30.16 in 3.0 mi NNW 18.4 mph - 0.00 in Snow Light Snow
8:53 PM 26.1 °F 12.3 °F 21.9 °F 84% 30.24 in 4.0 mi NNW 19.6 mph 26.5 mph 0.00 in Snow Light Snow
9:11 PM 26.6 °F 14.3 °F 21.2 °F 80% 30.18 in 8.0 mi North 16.1 mph - 0.00 in Snow Light Snow
9:53 PM 25.0 °F 12.6 °F 19.9 °F 81% 30.26 in 10.0 mi North 15.0 mph - 0.00 in   Mostly Cloudy
10:53 PM 24.1 °F - 19.9 °F 84% 30.27 in 10.0 mi North - - N/A   Scattered Clouds
11:23 PM 24.8 °F 20.5 °F 19.4 °F 80% 30.20 in 10.0 mi Variable 3.5 mph 24.2 mph N/A   Overcast
11:53 PM 25.0 °F 13.1 °F 19.9 °F 81% 30.27 in 10.0 mi NNW 13.8 mph - N/A   Overcast